UAL584 KIAH-KDFW

Flight info

Callsign UAL584
Flight time 0h 44m
Altitude 28000
Route BLTWY7 CRIED BEREE3
Aircraft A319/M-SDE3FGHIRWY/LB1

Departure

Time 2026-05-05 21:01
Airport George Bush Intercontinental Airport (KIAH)

Arrival

Time 2026-05-05 21:45
Airport Dallas Fort Worth International Airport (KDFW)
Time Latitude Longitude Altitude Speed Heading
2026-05-05 20:38 29.98496 -95.33802 107 ft 0 kts 292°
2026-05-05 20:48 29.98493 -95.33791 107 ft 4 kts 294°
2026-05-05 20:49 29.98479 -95.33764 107 ft 4 kts 313°
2026-05-05 20:49 29.98461 -95.33749 106 ft 2 kts 337°
2026-05-05 20:49 29.98440 -95.33735 106 ft 4 kts 308°
2026-05-05 20:49 29.98432 -95.33711 106 ft 4 kts 252°
2026-05-05 20:50 29.98445 -95.33692 107 ft 4 kts 183°
2026-05-05 20:50 29.98465 -95.33692 106 ft 0 kts 180°
2026-05-05 20:52 29.98462 -95.33692 106 ft 1 kts 180°
2026-05-05 20:52 29.98442 -95.33692 106 ft 5 kts 180°
2026-05-05 20:52 29.98390 -95.33693 107 ft 10 kts 180°
2026-05-05 20:53 29.98328 -95.33729 107 ft 12 kts 243°
2026-05-05 20:53 29.98317 -95.33837 107 ft 15 kts 270°
2026-05-05 20:53 29.98319 -95.33968 107 ft 18 kts 278°
2026-05-05 20:53 29.98374 -95.34104 107 ft 20 kts 284°
2026-05-05 20:54 29.98376 -95.34270 108 ft 22 kts 270°
2026-05-05 20:54 29.98363 -95.34436 107 ft 19 kts 241°
2026-05-05 20:54 29.98324 -95.34589 107 ft 22 kts 270°
2026-05-05 20:54 29.98324 -95.34775 107 ft 24 kts 270°
2026-05-05 20:55 29.98324 -95.34981 107 ft 27 kts 270°
2026-05-05 20:55 29.98330 -95.35154 106 ft 17 kts 293°
2026-05-05 20:55 29.98431 -95.35231 107 ft 19 kts 332°
2026-05-05 20:55 29.98552 -95.35306 107 ft 21 kts 332°
2026-05-05 20:56 29.98687 -95.35389 107 ft 23 kts 332°
2026-05-05 20:56 29.98835 -95.35480 107 ft 25 kts 332°
2026-05-05 20:56 29.98991 -95.35575 107 ft 24 kts 332°
2026-05-05 20:56 29.99089 -95.35669 107 ft 15 kts 280°
2026-05-05 20:57 29.99097 -95.35796 107 ft 16 kts 274°
2026-05-05 20:57 29.99088 -95.35922 105 ft 15 kts 255°
2026-05-05 20:57 29.99042 -95.36028 106 ft 13 kts 227°
2026-05-05 20:57 29.98960 -95.36015 107 ft 14 kts 151°
2026-05-05 20:58 29.98866 -95.35968 108 ft 13 kts 181°
2026-05-05 20:58 29.98824 -95.36022 107 ft 9 kts 242°
2026-05-05 20:58 29.98816 -95.36040 108 ft 0 kts 242°
2026-05-05 20:59 29.98815 -95.36040 108 ft 0 kts 242°
2026-05-05 20:59 29.98803 -95.36067 108 ft 8 kts 242°
2026-05-05 21:00 29.98757 -95.36121 108 ft 12 kts 181°
2026-05-05 21:00 29.98550 -95.35999 109 ft 64 kts 152°
2026-05-05 21:00 29.97973 -95.35645 106 ft 122 kts 152°
2026-05-05 21:00 29.97096 -95.35122 371 ft 148 kts 155°
2026-05-05 21:01 29.96160 -95.34632 1006 ft 148 kts 169°
2026-05-05 21:01 29.95192 -95.34861 1616 ft 151 kts 216°
2026-05-05 21:01 29.94620 -95.35968 2060 ft 181 kts 254°
2026-05-05 21:01 29.94825 -95.37515 2369 ft 221 kts 291°
2026-05-05 21:02 29.95954 -95.38956 2758 ft 263 kts 323°
2026-05-05 21:02 29.97759 -95.39673 3275 ft 287 kts 354°
2026-05-05 21:02 29.99774 -95.39671 4314 ft 290 kts
2026-05-05 21:02 30.01807 -95.39619 5296 ft 294 kts 356°
2026-05-05 21:03 30.03857 -95.39715 6288 ft 295 kts 354°
2026-05-05 21:03 30.05916 -95.39871 7194 ft 298 kts 352°
2026-05-05 21:03 30.08001 -95.40054 8082 ft 300 kts 352°
2026-05-05 21:03 30.10111 -95.40242 8977 ft 303 kts 352°
2026-05-05 21:04 30.12198 -95.40422 9833 ft 306 kts 352°
2026-05-05 21:04 30.14326 -95.40605 10640 ft 308 kts 352°
2026-05-05 21:04 30.16517 -95.40793 11097 ft 326 kts 352°
2026-05-05 21:04 30.18866 -95.40996 11333 ft 348 kts 352°
2026-05-05 21:05 30.21320 -95.41197 11878 ft 357 kts 352°
2026-05-05 21:05 30.23849 -95.41394 12583 ft 361 kts 352°
2026-05-05 21:05 30.26367 -95.41585 13297 ft 364 kts 351°
2026-05-05 21:05 30.28905 -95.41781 13981 ft 367 kts 351°
2026-05-05 21:06 30.31431 -95.42179 14604 ft 365 kts 342°
2026-05-05 21:06 30.33898 -95.42781 15232 ft 368 kts 342°
2026-05-05 21:06 30.36411 -95.43398 15868 ft 371 kts 342°
2026-05-05 21:06 30.38979 -95.44028 16522 ft 374 kts 341°
2026-05-05 21:07 30.41534 -95.44655 17165 ft 377 kts 341°
2026-05-05 21:07 30.44108 -95.45286 17810 ft 380 kts 341°
2026-05-05 21:07 30.46709 -95.45923 18411 ft 383 kts 341°
2026-05-05 21:07 30.49329 -95.46562 19004 ft 386 kts 341°
2026-05-05 21:08 30.51964 -95.47199 19617 ft 388 kts 341°
2026-05-05 21:08 30.54614 -95.47814 20217 ft 390 kts 341°
2026-05-05 21:08 30.57282 -95.48414 20794 ft 392 kts 341°
2026-05-05 21:08 30.59969 -95.49007 21397 ft 394 kts 341°
2026-05-05 21:09 30.62670 -95.49601 21984 ft 396 kts 340°
2026-05-05 21:09 30.65383 -95.50200 22539 ft 398 kts 340°
2026-05-05 21:09 30.68077 -95.50801 23060 ft 400 kts 340°
2026-05-05 21:09 30.70850 -95.51425 23559 ft 402 kts 339°
2026-05-05 21:10 30.73604 -95.52052 23997 ft 404 kts 339°
2026-05-05 21:10 30.76370 -95.52685 24414 ft 406 kts 339°
2026-05-05 21:10 30.79156 -95.53325 24836 ft 409 kts 339°
2026-05-05 21:10 30.81954 -95.53962 25237 ft 412 kts 339°
2026-05-05 21:11 30.84779 -95.54598 25634 ft 414 kts 339°
2026-05-05 21:11 30.87613 -95.55233 26052 ft 416 kts 339°
2026-05-05 21:11 30.90462 -95.55873 26450 ft 418 kts 339°
2026-05-05 21:11 30.93292 -95.56516 26818 ft 422 kts 338°
2026-05-05 21:12 30.96235 -95.57194 27064 ft 427 kts 338°
2026-05-05 21:12 30.99167 -95.57871 27312 ft 433 kts 338°
2026-05-05 21:12 31.02068 -95.58531 27553 ft 423 kts 339°
2026-05-05 21:12 31.04964 -95.59171 27766 ft 416 kts 338°
2026-05-05 21:13 31.07755 -95.59792 27821 ft 414 kts 338°
2026-05-05 21:13 31.10586 -95.60437 27824 ft 413 kts 338°
2026-05-05 21:13 31.13408 -95.61087 27845 ft 413 kts 338°
2026-05-05 21:13 31.16220 -95.61736 27821 ft 412 kts 338°
2026-05-05 21:14 31.19038 -95.62386 27823 ft 412 kts 338°
2026-05-05 21:14 31.21846 -95.63032 27824 ft 412 kts 338°
2026-05-05 21:14 31.23749 -95.63469 27824 ft 412 kts 338°
2026-05-05 21:14 31.26566 -95.64117 27818 ft 412 kts 338°
2026-05-05 21:15 31.29380 -95.64763 27818 ft 412 kts 338°
2026-05-05 21:15 31.32190 -95.65406 27815 ft 412 kts 338°
2026-05-05 21:15 31.34918 -95.66255 27814 ft 399 kts 329°
2026-05-05 21:15 31.37408 -95.67576 27816 ft 387 kts 320°
2026-05-05 21:16 31.39699 -95.69189 27832 ft 384 kts 319°
2026-05-05 21:16 31.41984 -95.70821 27826 ft 384 kts 319°
2026-05-05 21:16 31.44269 -95.72450 27820 ft 384 kts 318°
2026-05-05 21:16 31.46546 -95.74077 27810 ft 384 kts 318°
2026-05-05 21:17 31.48828 -95.75707 27803 ft 385 kts 318°
2026-05-05 21:17 31.51115 -95.77337 27794 ft 385 kts 318°
2026-05-05 21:17 31.53403 -95.78968 27791 ft 385 kts 318°
2026-05-05 21:17 31.55687 -95.80599 27789 ft 385 kts 318°
2026-05-05 21:18 31.57971 -95.82233 27789 ft 385 kts 318°
2026-05-05 21:18 31.60250 -95.83868 27783 ft 385 kts 318°
2026-05-05 21:18 31.62539 -95.85511 27779 ft 385 kts 318°
2026-05-05 21:18 31.64819 -95.87145 27783 ft 385 kts 318°
2026-05-05 21:19 31.67108 -95.88784 27801 ft 385 kts 318°
2026-05-05 21:19 31.69395 -95.90423 27796 ft 385 kts 318°
2026-05-05 21:19 31.71674 -95.92063 27796 ft 384 kts 318°
2026-05-05 21:19 31.73956 -95.93704 27790 ft 385 kts 318°
2026-05-05 21:20 31.76239 -95.95348 27787 ft 385 kts 318°
2026-05-05 21:20 31.78520 -95.96990 27787 ft 384 kts 318°
2026-05-05 21:20 31.80799 -95.98629 27785 ft 385 kts 318°
2026-05-05 21:20 31.83081 -96.00272 27779 ft 385 kts 318°
2026-05-05 21:21 31.85360 -96.01916 27778 ft 385 kts 318°
2026-05-05 21:21 31.87644 -96.03565 27775 ft 385 kts 318°
2026-05-05 21:21 31.89921 -96.05210 27777 ft 385 kts 318°
2026-05-05 21:21 31.92207 -96.06858 27778 ft 385 kts 318°
2026-05-05 21:22 31.94485 -96.08500 27810 ft 385 kts 318°
2026-05-05 21:22 31.96767 -96.10149 27810 ft 385 kts 317°
2026-05-05 21:22 31.99046 -96.11802 27804 ft 385 kts 317°
2026-05-05 21:22 32.01326 -96.13456 27800 ft 385 kts 318°
2026-05-05 21:23 32.03609 -96.15105 27793 ft 385 kts 318°
2026-05-05 21:23 32.05930 -96.16777 27664 ft 386 kts 318°
2026-05-05 21:23 32.08188 -96.18405 27392 ft 384 kts 318°
2026-05-05 21:23 32.10490 -96.20060 26877 ft 380 kts 318°
2026-05-05 21:24 32.12733 -96.21674 26334 ft 376 kts 318°
2026-05-05 21:24 32.14957 -96.23279 25801 ft 373 kts 318°
2026-05-05 21:24 32.17157 -96.24873 25275 ft 370 kts 318°
2026-05-05 21:24 32.19345 -96.26459 24780 ft 367 kts 318°
2026-05-05 21:25 32.21516 -96.28038 24251 ft 365 kts 317°
2026-05-05 21:25 32.23671 -96.29612 23741 ft 363 kts 318°
2026-05-05 21:25 32.25818 -96.31175 23226 ft 361 kts 318°
2026-05-05 21:25 32.27870 -96.32826 22708 ft 351 kts 311°
2026-05-05 21:26 32.29640 -96.34748 22133 ft 352 kts 307°
2026-05-05 21:26 32.31422 -96.36805 21551 ft 354 kts 307°
2026-05-05 21:26 32.33169 -96.38819 20979 ft 355 kts 307°
2026-05-05 21:26 32.34935 -96.40850 20390 ft 354 kts 307°
2026-05-05 21:27 32.36701 -96.42881 19823 ft 353 kts 307°
2026-05-05 21:27 32.38461 -96.44908 19248 ft 353 kts 307°
2026-05-05 21:27 32.40221 -96.46932 18664 ft 353 kts 307°
2026-05-05 21:27 32.41983 -96.48958 18104 ft 353 kts 308°
2026-05-05 21:28 32.43740 -96.50978 17730 ft 354 kts 308°
2026-05-05 21:28 32.45500 -96.53005 17194 ft 352 kts 307°
2026-05-05 21:28 32.47225 -96.54983 16998 ft 338 kts 307°
2026-05-05 21:28 32.48891 -96.56890 16655 ft 329 kts 307°
2026-05-05 21:29 32.50525 -96.58770 16409 ft 326 kts 307°
2026-05-05 21:29 32.52152 -96.60643 16126 ft 326 kts 307°
2026-05-05 21:29 32.53775 -96.62509 15736 ft 324 kts 307°
2026-05-05 21:29 32.55391 -96.64366 15331 ft 323 kts 307°
2026-05-05 21:30 32.57002 -96.66216 14925 ft 322 kts 308°
2026-05-05 21:30 32.58628 -96.68066 14159 ft 326 kts 308°
2026-05-05 21:30 32.60254 -96.69893 13432 ft 321 kts 309°
2026-05-05 21:30 32.61847 -96.71669 13170 ft 305 kts 309°
2026-05-05 21:31 32.63373 -96.73366 13004 ft 291 kts 309°
2026-05-05 21:31 32.64812 -96.74977 12752 ft 285 kts 308°
2026-05-05 21:31 32.66253 -96.76604 12514 ft 280 kts 308°
2026-05-05 21:31 32.67640 -96.78181 12267 ft 279 kts 308°
2026-05-05 21:32 32.69035 -96.79773 12021 ft 279 kts 308°
2026-05-05 21:32 32.70427 -96.81361 11952 ft 275 kts 308°
2026-05-05 21:32 32.71819 -96.82945 12015 ft 270 kts 308°
2026-05-05 21:32 32.73166 -96.84472 12034 ft 265 kts 308°
2026-05-05 21:33 32.74499 -96.85988 12024 ft 265 kts 308°
2026-05-05 21:33 32.75829 -96.87506 12024 ft 266 kts 308°
2026-05-05 21:33 32.77151 -96.89009 12013 ft 258 kts 308°
2026-05-05 21:33 32.78481 -96.90422 12012 ft 260 kts 317°
2026-05-05 21:34 32.80157 -96.91336 11956 ft 273 kts 338°
2026-05-05 21:34 32.82085 -96.91525 11667 ft 282 kts 353°
2026-05-05 21:34 32.84042 -96.91506 11332 ft 281 kts 353°
2026-05-05 21:34 32.85986 -96.91478 10935 ft 277 kts 353°
2026-05-05 21:35 32.87909 -96.91451 10508 ft 276 kts 354°
2026-05-05 21:35 32.89824 -96.91430 10092 ft 273 kts 354°
2026-05-05 21:35 32.91699 -96.91411 9704 ft 270 kts 354°
2026-05-05 21:35 32.93574 -96.91397 9287 ft 268 kts 354°
2026-05-05 21:36 32.95430 -96.91386 8860 ft 266 kts 354°
2026-05-05 21:36 32.97267 -96.91377 8437 ft 263 kts 354°
2026-05-05 21:36 32.99091 -96.91368 7993 ft 261 kts 354°
2026-05-05 21:36 33.00902 -96.91359 7541 ft 258 kts 354°
2026-05-05 21:37 33.02687 -96.91347 7095 ft 256 kts 355°
2026-05-05 21:37 33.04464 -96.91335 6667 ft 254 kts 355°
2026-05-05 21:37 33.06216 -96.91320 6227 ft 251 kts 355°
2026-05-05 21:37 33.07957 -96.91293 5770 ft 249 kts 355°
2026-05-05 21:38 33.09679 -96.91276 5331 ft 246 kts 356°
2026-05-05 21:38 33.11337 -96.91529 4871 ft 235 kts 332°
2026-05-05 21:38 33.12514 -96.92662 4723 ft 208 kts 298°
2026-05-05 21:38 33.12889 -96.94262 4432 ft 198 kts 269°
2026-05-05 21:39 33.12783 -96.95895 4169 ft 197 kts 263°
2026-05-05 21:39 33.12581 -96.97502 3867 ft 198 kts 255°
2026-05-05 21:39 33.11827 -96.98868 3585 ft 201 kts 227°
2026-05-05 21:39 33.10780 -96.99960 3384 ft 196 kts 223°
2026-05-05 21:40 33.09738 -97.00962 3265 ft 190 kts 222°
2026-05-05 21:40 33.08707 -97.01918 3141 ft 187 kts 218°
2026-05-05 21:40 33.07477 -97.02475 3062 ft 194 kts 191°
2026-05-05 21:40 33.06127 -97.02521 3015 ft 193 kts 183°
2026-05-05 21:41 33.04761 -97.02526 2980 ft 197 kts 183°
2026-05-05 21:41 33.03432 -97.02532 2789 ft 189 kts 185°
2026-05-05 21:41 33.02148 -97.02538 2564 ft 171 kts 183°
2026-05-05 21:41 33.01009 -97.02544 2347 ft 159 kts 186°
2026-05-05 21:42 32.99931 -97.02549 2149 ft 150 kts 185°
2026-05-05 21:42 32.98906 -97.02557 1973 ft 151 kts 186°
2026-05-05 21:42 32.97858 -97.02563 1786 ft 149 kts 182°
2026-05-05 21:42 32.96820 -97.02569 1596 ft 150 kts 185°
2026-05-05 21:43 32.95780 -97.02575 1427 ft 149 kts 183°
2026-05-05 21:43 32.94765 -97.02580 1247 ft 143 kts 184°
2026-05-05 21:43 32.93794 -97.02585 1058 ft 138 kts 182°
2026-05-05 21:43 32.92853 -97.02587 883 ft 134 kts 185°
2026-05-05 21:44 32.91911 -97.02590 716 ft 133 kts 185°
2026-05-05 21:44 32.91006 -97.02597 601 ft 120 kts 182°
2026-05-05 21:44 32.90281 -97.02608 598 ft 86 kts 180°
2026-05-05 21:44 32.89785 -97.02610 598 ft 54 kts 181°
2026-05-05 21:45 32.89613 -97.02657 598 ft 15 kts 204°
2026-05-05 21:45 32.89505 -97.02729 598 ft 20 kts 211°
2026-05-05 21:45 32.89411 -97.02795 598 ft 13 kts 213°
2026-05-05 21:45 32.89394 -97.02877 598 ft 10 kts 270°
2026-05-05 21:46 32.89394 -97.02969 598 ft 13 kts 270°
2026-05-05 21:46 32.89394 -97.03046 598 ft 15 kts 271°
2026-05-05 21:46 32.89395 -97.03189 598 ft 18 kts 270°
2026-05-05 21:46 32.89381 -97.03319 598 ft 11 kts 259°
2026-05-05 21:47 32.89379 -97.03421 598 ft 14 kts 270°
2026-05-05 21:47 32.89378 -97.03548 598 ft 17 kts 269°
2026-05-05 21:47 32.89340 -97.03636 598 ft 11 kts 221°
2026-05-05 21:47 32.89309 -97.03671 598 ft 0 kts 223°
2026-05-05 21:48 32.89308 -97.03672 598 ft 0 kts 224°